User: anonymous
Location: Unspecified
(0.0000°N, 0.0000°E)
Time: 06:23:23
(UTC+00:00)
Language:

Vela 3B - Orbit

View from above orbital plane
View from above orbital plane
View from above satellite
View from above satellite

Ground track
Ground track

The orbit data is extracted from the following two-line orbital elements,

1 01459U 65058B   14291.10094134 -.00000958  00000-0  00000+0 0   120
2 01459 002.3931 027.9310 4484301 306.8774 001.5662 00.21426006 38923
Epoch (UTC): 18 October 2014 02:25:21
Eccentricity: 0.4484301
inclination: 2.3931°
perigee height: 58690 km
apogee height: 164492 km
right ascension of ascending node: 27.9310°
argument of perigee: 306.8774°
revolutions per day: 0.21426006
mean anomaly at epoch: 1.5662°
orbit number at epoch: 3892

The dashed part of the orbit path shows where the satellite is in the earth's shadow,  

DLR